Wind_Speed
21 22 22 22 22 22 21 21 20 20 18 17 16 16 17 18 18 18 19 20 21 22 23 23 24 25 25 26 27 27 28 28 28 29 29 30 30 32 33 35 36 38 39 40
22 22 22 21 21 21 20 19 19 18 17 16 16 16 17 17 18 19 21 22 23 24 25 26 27 27 28 29 29 29 29 29 30 30 30 30 31 32 34 35 36 38 39 40
22 23 22 21 20 20 19 18 18 18 18 17 16 16 17 18 19 21 23 24 25 26 27 28 29 29 30 30 30 30 30 29 29 29 29 30 30 32 33 35 36 38 39 41
23 23 22 21 21 20 19 18 18 18 19 18 18 18 18 19 21 23 24 26 27 27 28 29 29 30 30 30 29 29 29 28 28 28 29 30 30 32 33 35 36 38 40 41
24 23 22 22 21 20 19 19 19 19 20 19 20 21 20 21 22 24 25 27 27 28 28 29 29 30 29 29 28 28 27 27 27 28 29 30 32 33 34 36 38 39 41 43
24 24 23 22 22 21 21 21 21 21 21 20 21 22 22 21 23 25 26 26 27 28 28 29 29 29 29 28 27 26 26 27 28 29 30 31 33 34 36 38 39 41 43 46
25 24 24 23 23 23 22 22 23 22 21 21 22 23 23 23 24 25 26 27 28 28 29 29 29 28 27 27 27 26 27 28 29 31 32 34 35 37 39 41 42 45 47 49
25 25 25 24 24 24 24 24 25 25 23 22 23 24 24 24 25 26 27 28 29 29 29 28 28 28 27 27 28 29 30 31 32 34 36 38 39 41 43 46 48 50 52 54
26 26 26 26 25 25 25 25 26 27 26 25 25 24 25 25 27 28 29 29 29 29 28 28 28 28 28 29 31 32 33 35 36 38 40 42 44 46 48 50 53 55 58 60
28 27 26 27 27 27 27 27 27 27 29 29 26 25 26 27 28 29 30 30 29 29 29 29 29 29 31 33 34 36 37 39 40 42 44 47 49 51 54 56 58 61 63 66
29 29 28 28 28 28 28 28 29 30 31 31 30 27 28 30 31 31 31 31 30 30 31 31 32 33 35 37 38 39 41 43 45 47 49 52 54 57 59 61 64 66 69 71
31 32 30 30 30 30 31 30 30 31 32 33 33 31 30 32 32 33 33 32 32 32 33 34 35 37 39 40 42 44 45 47 50 52 54 57 59 62 64 66 69 72 74 76
33 34 32 32 31 32 32 32 32 34 34 34 34 33 33 34 35 35 35 34 34 35 36 37 39 41 42 44 46 47 49 52 54 57 59 62 64 66 69 71 74 76 79 81
35 35 34 33 33 34 34 34 34 35 36 37 35 34 33 36 37 37 36 36 37 38 39 40 42 44 46 48 49 51 54 56 59 61 64 66 69 71 73 76 78 80 83 85
37 37 36 35 36 37 37 36 36 37 37 39 37 36 34 36 38 38 38 39 39 40 41 43 45 47 49 51 53 55 58 61 63 66 68 70 73 75 77 79 82 84 86 88
38 39 38 37 37 39 39 36 37 38 39 40 40 37 35 37 38 39 39 40 41 42 44 46 48 50 52 54 57 59 62 65 67 69 71 74 76 78 80 83 85 86 87 88
39 40 40 40 39 42 41 37 38 40 40 41 40 38 38 37 38 39 40 42 43 45 47 48 50 52 55 58 60 63 65 68 70 73 75 77 79 81 83 85 87 87 87 85
39 40 42 43 42 44 41 40 39 41 41 40 40 39 39 39 39 41 42 43 45 47 49 51 53 55 58 61 63 66 69 71 73 75 77 79 82 84 85 86 87 86 84 80
42 42 43 45 46 46 42 41 41 42 41 40 40 40 40 41 42 43 44 45 47 49 51 53 55 58 61 64 67 69 71 73 75 77 79 81 83 85 86 86 85 82 79 74
42 42 44 46 48 49 45 43 42 43 43 39 40 41 41 42 43 44 46 47 49 52 54 56 58 61 64 67 69 71 73 75 77 79 81 82 84 85 85 83 81 77 73 69
42 44 45 46 49 50 46 45 43 43 42 41 41 41 42 43 44 46 47 50 52 54 56 59 61 64 67 69 71 73 75 77 78 80 81 83 83 83 82 79 75 72 68 64
44 46 46 47 49 47 46 45 44 43 43 42 42 42 43 44 46 48 50 52 54 56 59 61 64 66 69 71 74 75 76 78 79 81 82 82 81 79 77 74 69 66 63 60
47 47 48 47 47 46 45 44 44 43 43 43 43 44 45 46 48 50 52 54 56 59 61 64 66 68 70 73 75 76 78 79 80 81 81 80 77 74 71 68 65 61 59 57
47 47 47 47 46 45 45 44 44 44 44 44 45 46 47 49 51 52 54 56 58 61 64 66 68 70 72 74 75 77 79 80 81 80 79 76 73 70 66 63 61 59 56 54
46 45 45 46 45 45 44 44 44 44 44 45 46 47 49 51 52 54 56 59 61 64 66 68 70 72 73 75 76 78 80 80 80 78 75 72 69 65 62 58 56 55 53 52
44 44 45 45 44 44 44 44 44 44 45 46 48 49 51 52 54 56 59 61 63 66 68 70 72 73 74 76 77 78 79 79 78 75 72 68 65 61 58 54 51 50 50 49
Wind_Direction
264 267 268 270 271 271 271 271 271 273 274 275 277 278 280 282 283 283 284 285 285 286 287 287 288 288 288 287 287 286 285 284 284 284 284 284 284 284 283 283 284 283 283 283
263 266 268 269 269 269 269 269 269 271 273 274 274 275 275 277 280 281 282 283 284 285 286 287 288 288 289 288 288 287 286 285 285 285 285 285 285 285 285 285 286 286 286 286
263 265 267 267 267 266 266 265 267 271 274 274 273 272 274 277 279 280 281 282 284 286 287 288 289 289 290 289 289 289 288 287 287 287 287 287 287 287 286 287 287 287 287 287
261 263 265 265 264 263 263 265 266 269 272 274 276 276 276 278 280 280 282 284 285 287 287 288 288 289 290 290 290 289 290 290 291 291 291 290 290 290 290 289 289 289 289 289
259 261 263 263 263 263 264 266 267 268 271 274 278 280 280 281 282 283 284 285 286 287 287 288 288 289 289 290 290 290 291 292 292 293 293 293 293 292 292 292 292 292 291 291
257 258 260 261 262 264 265 267 268 270 272 276 279 282 284 285 285 285 285 286 286 287 288 288 288 288 288 289 290 291 292 293 294 294 295 295 295 295 295 294 294 293 293 292
255 256 258 259 262 264 266 268 271 271 273 277 281 282 286 288 287 287 287 287 287 288 289 287 287 287 288 289 290 292 293 294 294 295 296 296 297 297 296 296 295 295 294 294
254 255 257 259 262 264 266 269 272 275 277 279 281 284 288 290 289 288 287 288 288 289 287 286 286 286 286 288 291 293 295 296 297 297 297 298 298 298 297 297 296 296 295 294
254 254 257 259 261 264 266 269 272 276 278 280 281 285 287 289 288 288 288 288 288 287 286 285 285 284 286 289 292 294 296 298 298 298 298 299 299 299 298 298 297 297 296 295
255 256 257 260 262 264 267 269 272 275 279 281 281 284 288 289 288 288 288 288 287 286 286 285 284 286 288 291 294 296 297 298 299 299 299 300 300 299 299 299 298 298 297 297
255 257 258 260 262 265 268 271 273 275 278 282 283 285 290 290 288 288 287 287 286 286 285 285 286 288 291 294 296 298 299 299 300 300 300 300 300 300 300 300 299 299 298 297
256 258 259 260 262 265 268 270 272 276 278 281 284 289 291 289 287 286 286 286 285 285 285 286 288 291 294 296 298 299 300 300 301 301 302 302 302 301 301 301 300 300 299 299
256 259 261 261 263 264 267 269 272 275 278 281 285 291 291 288 285 284 284 284 285 285 286 288 291 293 295 297 299 300 301 301 302 302 303 303 302 302 302 302 301 301 301 300
256 259 261 262 263 264 266 268 272 276 279 281 284 287 286 283 282 283 283 284 285 286 287 289 292 295 297 298 299 300 301 302 303 303 303 303 304 304 303 303 303 303 302 302
257 259 261 262 264 266 268 270 273 276 279 282 284 284 283 280 281 282 282 283 284 286 288 291 293 296 297 298 300 301 302 303 304 304 304 304 305 305 305 304 304 304 304 304
258 260 261 262 265 267 268 271 275 277 280 283 284 285 282 280 280 280 281 283 285 287 290 292 294 296 297 299 301 302 303 304 304 305 305 305 305 305 306 306 306 306 306 305
259 262 263 264 265 267 269 273 275 278 280 282 283 284 282 281 279 279 281 283 286 288 290 293 295 297 298 300 301 302 304 304 305 305 306 306 306 307 307 307 308 307 307 306
260 263 265 267 266 267 272 273 276 278 279 280 282 282 281 281 280 280 282 284 286 288 291 293 296 298 299 301 302 304 305 305 306 307 308 308 308 308 309 309 309 309 308 307
261 263 265 267 269 270 272 277 278 278 277 280 281 280 280 280 281 282 283 285 288 290 292 295 297 299 300 302 303 305 306 306 307 308 309 309 309 310 310 310 310 309 308 308
262 264 266 268 271 273 276 276 277 278 278 279 279 279 280 281 282 284 286 288 290 292 294 296 299 300 302 304 305 306 307 307 308 309 310 310 311 311 311 311 310 309 309 308
262 263 266 269 271 274 278 279 278 278 279 278 278 279 280 281 283 285 287 289 292 294 296 298 300 302 304 305 306 307 308 309 310 311 311 311 312 311 311 311 310 309 309 308
262 264 265 268 270 275 277 278 278 278 278 279 280 281 282 283 285 287 289 291 293 295 298 300 302 304 305 306 307 308 309 310 311 311 312 312 312 312 311 311 310 309 309 309
263 265 267 268 270 273 276 276 277 277 278 280 281 282 283 285 287 289 291 293 295 297 300 302 303 305 306 307 308 309 310 311 311 312 313 313 312 312 311 310 310 310 310 309
264 265 266 268 270 272 273 274 275 277 279 280 282 283 284 286 288 291 293 295 298 300 302 303 305 306 307 308 309 310 311 311 312 313 313 313 312 311 311 311 311 311 311 310
264 266 267 269 270 270 271 272 275 277 279 281 282 284 286 288 291 293 295 298 300 302 303 304 306 307 308 309 310 311 311 312 313 313 313 313 312 312 311 311 311 312 311 312
264 266 267 268 269 269 271 273 275 278 280 282 284 286 288 291 293 295 298 300 301 302 304 305 306 307 308 309 310 311 312 312 313 313 313 313 312 312 311 311 311 312 312 312
Height
5823 5824 5823 5823 5823 5822 5822 5822 5821 5821 5821 5821 5820 5820 5819 5818 5817 5816 5815 5813 5812 5811 5809 5808 5806 5805 5803 5801 5800 5798 5797 5795 5794 5792 5790 5789 5787 5785 5783 5781 5779 5777 5776 5774
5819 5819 5819 5818 5818 5818 5818 5818 5817 5817 5817 5817 5817 5817 5816 5815 5814 5812 5811 5809 5808 5806 5805 5803 5801 5799 5798 5796 5794 5792 5791 5789 5787 5785 5784 5782 5780 5778 5775 5773 5771 5769 5767 5765
5813 5814 5814 5814 5814 5814 5814 5814 5813 5813 5813 5813 5814 5814 5813 5811 5810 5808 5806 5805 5803 5802 5800 5798 5796 5794 5792 5790 5787 5785 5784 5782 5780 5778 5776 5774 5773 5770 5768 5766 5764 5761 5759 5756
5808 5809 5809 5810 5809 5809 5810 5809 5809 5809 5809 5809 5810 5810 5809 5807 5806 5804 5802 5800 5798 5796 5794 5792 5790 5788 5786 5784 5781 5779 5777 5775 5773 5771 5770 5768 5766 5764 5761 5759 5756 5753 5750 5747
5803 5804 5804 5805 5805 5805 5805 5805 5805 5805 5804 5805 5804 5804 5805 5802 5801 5799 5796 5794 5792 5790 5788 5786 5784 5782 5780 5777 5775 5773 5771 5769 5767 5765 5763 5761 5758 5756 5753 5750 5748 5744 5741 5737
5798 5798 5799 5800 5800 5800 5800 5801 5800 5800 5800 5801 5800 5799 5798 5797 5795 5793 5791 5788 5786 5784 5782 5780 5778 5775 5773 5771 5769 5767 5765 5763 5761 5758 5756 5753 5751 5748 5745 5742 5739 5735 5731 5727
5793 5794 5794 5795 5795 5795 5796 5796 5796 5795 5795 5796 5794 5793 5793 5791 5789 5787 5785 5782 5780 5778 5776 5774 5771 5769 5767 5765 5763 5761 5759 5757 5754 5751 5748 5746 5743 5740 5736 5733 5729 5725 5720 5716
5787 5789 5789 5790 5790 5790 5790 5791 5791 5790 5790 5790 5788 5787 5788 5785 5783 5780 5778 5776 5774 5771 5769 5767 5765 5763 5761 5759 5757 5754 5752 5749 5747 5744 5740 5737 5733 5730 5726 5722 5717 5713 5708 5703
5781 5783 5784 5784 5784 5785 5785 5784 5784 5784 5782 5783 5783 5782 5781 5779 5776 5774 5772 5769 5767 5765 5762 5760 5758 5756 5754 5752 5749 5747 5744 5741 5738 5735 5731 5727 5723 5719 5714 5709 5704 5699 5694 5688
5775 5777 5778 5778 5778 5779 5779 5779 5779 5777 5776 5776 5777 5776 5775 5772 5769 5767 5765 5762 5760 5758 5756 5753 5751 5749 5747 5744 5742 5739 5736 5732 5729 5725 5721 5716 5712 5707 5701 5696 5690 5684 5678 5671
5768 5770 5772 5772 5772 5772 5772 5773 5771 5770 5770 5769 5768 5772 5769 5765 5762 5760 5757 5755 5753 5751 5748 5746 5744 5741 5739 5736 5733 5729 5726 5722 5718 5713 5709 5704 5699 5693 5687 5681 5674 5667 5660 5653
5761 5762 5764 5765 5765 5765 5765 5765 5765 5764 5763 5761 5760 5765 5761 5757 5754 5752 5750 5748 5745 5743 5740 5738 5735 5733 5730 5726 5723 5719 5715 5711 5706 5701 5696 5690 5684 5678 5672 5664 5657 5649 5641 5633
5754 5755 5757 5758 5760 5759 5758 5758 5757 5756 5755 5754 5753 5757 5752 5748 5745 5743 5741 5739 5737 5735 5732 5729 5726 5723 5720 5717 5713 5708 5704 5699 5694 5688 5682 5676 5669 5662 5654 5646 5638 5629 5620 5611
5746 5747 5749 5751 5750 5750 5750 5750 5749 5748 5747 5746 5747 5747 5744 5739 5736 5735 5733 5730 5728 5726 5723 5720 5717 5713 5710 5706 5701 5697 5692 5686 5680 5674 5667 5660 5652 5644 5636 5627 5618 5608 5598 5588
5738 5739 5740 5741 5741 5741 5742 5742 5741 5740 5739 5737 5738 5737 5736 5730 5728 5726 5724 5721 5719 5716 5713 5710 5707 5703 5699 5694 5690 5685 5679 5672 5666 5659 5651 5643 5635 5626 5617 5607 5597 5587 5576 5564
5729 5730 5732 5733 5733 5731 5732 5734 5733 5731 5730 5728 5727 5727 5725 5722 5719 5717 5714 5711 5709 5706 5703 5700 5696 5692 5687 5682 5677 5671 5665 5658 5650 5642 5634 5625 5616 5607 5597 5586 5576 5565 5553 5541
5721 5722 5722 5723 5723 5721 5723 5727 5724 5722 5721 5719 5717 5717 5714 5712 5710 5707 5705 5702 5699 5696 5693 5689 5685 5680 5675 5669 5664 5657 5650 5643 5634 5626 5617 5607 5597 5587 5576 5565 5553 5541 5530 5519
5712 5713 5712 5712 5713 5711 5718 5716 5715 5712 5711 5710 5708 5706 5704 5702 5700 5697 5695 5692 5689 5685 5682 5677 5673 5668 5662 5656 5649 5642 5634 5626 5617 5608 5598 5587 5576 5566 5555 5543 5531 5519 5507 5496
5703 5703 5702 5701 5700 5700 5706 5706 5703 5701 5701 5700 5698 5696 5694 5692 5689 5687 5684 5681 5678 5674 5670 5665 5660 5655 5648 5641 5634 5627 5618 5609 5599 5590 5579 5567 5556 5545 5534 5522 5510 5498 5486 5477
5693 5693 5693 5691 5690 5689 5695 5695 5692 5691 5690 5690 5687 5685 5683 5681 5679 5677 5673 5669 5666 5661 5657 5652 5647 5640 5633 5626 5618 5610 5601 5591 5582 5571 5560 5548 5535 5523 5512 5501 5489 5478 5467 5458
5684 5683 5682 5681 5679 5679 5683 5681 5680 5681 5681 5678 5676 5674 5672 5670 5668 5665 5661 5657 5653 5649 5644 5638 5632 5625 5617 5609 5601 5593 5583 5573 5563 5552 5541 5529 5516 5503 5492 5481 5470 5459 5450 5441
5672 5671 5672 5671 5669 5672 5671 5670 5669 5669 5667 5666 5664 5663 5661 5659 5656 5653 5649 5645 5640 5635 5630 5624 5618 5610 5601 5592 5584 5575 5566 5556 5546 5534 5523 5511 5498 5485 5473 5462 5453 5443 5433 5426
5660 5661 5660 5661 5662 5661 5660 5658 5657 5656 5656 5654 5653 5651 5649 5647 5643 5640 5636 5632 5627 5622 5616 5609 5602 5594 5585 5575 5565 5556 5547 5537 5527 5516 5504 5492 5481 5469 5457 5446 5437 5428 5419 5411
5648 5648 5648 5649 5649 5649 5647 5646 5646 5645 5644 5643 5641 5640 5637 5634 5631 5627 5623 5618 5613 5607 5600 5593 5585 5577 5568 5558 5548 5538 5528 5518 5508 5497 5486 5475 5464 5454 5443 5433 5423 5414 5406 5398
5637 5636 5636 5637 5637 5636 5636 5635 5635 5634 5633 5631 5629 5627 5624 5621 5617 5613 5609 5603 5598 5591 5584 5576 5568 5560 5551 5542 5531 5520 5509 5499 5490 5479 5468 5458 5447 5437 5429 5420 5411 5402 5394 5384
5625 5625 5625 5626 5626 5625 5625 5625 5624 5623 5621 5619 5617 5614 5611 5607 5604 5599 5594 5588 5582 5575 5568 5560 5552 5543 5534 5524 5514 5503 5492 5481 5471 5462 5452 5442 5432 5423 5414 5407 5401 5392 5383 5375